STARLINK-36434, 67322

Orbit data source: Space-Track

STARLINK-36434, 67322 is a payload satellite owned by SpaceX/Seattle (US) in LEO that was launched on Sun, 04 Jan 2026 UTC via an FALCON 9 launch vehicle from the Air Force Eastern Test Range (AFETR). Payload-class satellites include a variety of spacecraft equipped with specific instruments for various scientific and technological missions. These include communications satellites like Starlink; space stations such as the ISS; scientific satellites like the Hubble; Earth observation satellites from companies like Planet Labs, Umbra, and HawkEye 360; GPS; miniature CubeSats for education and research; and military/defense satellites.

Loading next visibility...
Identifier
67322, 2026-002T
Orbit
LEO
Country
Flag of USUS
Related business
Manufacturer
SpaceX/Seattle
Mission
Operational Commercial Communications
Bus & Motor
STARLINK V2MO, Unknown motor
Mass
575 kg wet, ~530 kg dry
Launch date (UTC)
2026-01-04 (5 months ago)
Launch vehicle
FALCON 9
Launch site
Air Force Eastern Test Range (AFETR)
Object type
Payload
Rocket body
Debris
Shape & HBR
Box + 2 Pan, 17.7 m
Radar Cross Section
36.964 m², Large (>1 m²)

Expand to show TLE details & history
Last TLE update: 15 hours ago

TLE from 15 hours ago
0 STARLINK-36434
1 67322U 26002T   26171.20401578  .00013204  00000-0  48822-3 0  9991
2 67322  43.0027 106.6270 0001112 271.1693  88.9031 15.27597609 26754
Epoch: 2026-06-20T04:53Z
TLE epoch observation values (Epoch: 2026-06-20T04:53:46.963Z)
Latitude
-0.00003°
Longitude
124.75929°
Altitude
482.758 km
Speed
7.626 km/s
True Right ascension
07h 06m 30s
True Declination
0° 00' 00"
Sunlit
Object was in daylight at epoch
Visualization orbit readout
Latitude
Unknown
Longitude
Unknown
Altitude
Unknown
Speed
Unknown
Apparent Right ascension
Unknown
Apparent Declination
Unknown
Sunlit
N/A
Visualization observer readout
Local Sidereal Time
07:19:28
Azimuth
Unknown
Elevation
Unknown
Doppler factor
Unknown
Orbital elements
Apogee altitude
485.704 km
Perigee altitude
484.178 km
Semi-major axis
6,863.078 km
Eccentricity
0.00011
Inclination
43.0027°
RAAN
106.627°
Arg. of periapsis
271.1693°
True anomaly
88.91584°
Mean anomaly
88.9031°
Eccentric anomaly
88.90947°
Mean motion
3.81737 °/min
Orbital period
94.31 mins
BSTAR
0.00048822
Loading maneuver chart data...
Computing Atmospheric mass density...
Loading historical data...
Loading historical data...
Loading historical data...
Loading historical data...
Loading historical data...
Loading historical data...
Loading historical data...

Documentation

Showing up to 5 results
|